Regional Weather Roundup
Issued by NWS Northern Indiana

Home | Current Version | Previous Version | Text Only | Print | Product List | Glossary Off
Versions: 1 2 3 4 5 6 7 8 9 10 11 12 13 14 15 16 17 18 19 20 21 22 23 24 25 26 27 28 29 30 31 32 33 34 35 36 37 38 39 40 41 42 43 44 45 46 47 48 49 50

000
ASUS43 KIWX 280100
RWRIWX

KIWX WEATHER ROUNDUP
NATIONAL WEATHER SERVICE NORTHERN INDIANA
900 PM EDT WED AUG 27 2014

NOTE: "FAIR" INDICATES FEW OR NO CLOUDS BELOW 12,000 FEET WITH NO
SIGNIFICANT WEATHER AND/OR OBSTRUCTIONS TO VISIBILITY.

* THESE STATIONS ARE NOT UNDER NWS QUALITY CONTROL. THEY ALSO MAY NOT
  REPORT WEATHER SUCH AS PRECIPITATION OR FOG.

INZ001>027-280200-
NORTHERN INDIANA

CITY           SKY/WX    TMP DP  RH WIND       PRES   REMARKS
GARY*          MOCLDY    70  59  68 NE7       30.11F
VALPARAISO     MOCLDY    65  58  78 NE3       30.10F
KNOX*          PTCLDY    65  59  80 N8        30.10S
SOUTH BEND     CLOUDY    67  59  75 N7        30.11S
ELKHART*       CLEAR     68  59  73 N3        30.12
GOSHEN         CLOUDY    70  62  76 N6        30.10R
MONTICELLO*    PTCLDY    71  64  79 N6        30.08R
ANGOLA*        CLEAR     70  61  73 N3        30.10S
FORT WAYNE     MOCLDY    70  61  73 N7        30.08R
PERU/GRISSOM   CLEAR     74  67  79 N5        30.08R

$$
INZ028>050-280200-
CENTRAL INDIANA

CITY           SKY/WX    TMP DP  RH WIND       PRES   REMARKS
LAFAYETTE      PTCLDY    73  64  73 N8        30.08R
KOKOMO*        CLEAR     72  64  78 NE5       30.08S
MUNCIE*        CLEAR     70  65  84 N3        30.08R
INDIANAPOLIS   MOCLDY    79  68  69 N10       30.06R

$$
MIZ043>046-050>051-056>058-064>065-071>073-077>080-280200-
SOUTHWEST LOWER MICHIGAN

CITY           SKY/WX    TMP DP  RH WIND       PRES   REMARKS
BATTLE CREEK   CLOUDY    68  60  75 N3        30.11S
BENTON HARBOR  CLOUDY    65  61  87 NE5       30.11S
COLDWATER*     CLOUDY    69  61  75 N3        30.11S
HILLSDALE*     CLOUDY    67  62  82 CALM      30.11S
HOLLAND        MOCLDY    67  54  63 VRB3      30.12F
GRAND RAPIDS   MOCLDY    69  58  67 NW9       30.12S
KALAMAZOO      CLOUDY    69  60  73 NW12      30.11S
STURGIS*       CLOUDY    66  63  88 N3        30.10S
THREE RIVERS*  FAIR      69  61  76 CALM      30.11S

$$
OHZ001>008-015>018-024>025-280200-
NORTHWEST OHIO

CITY           SKY/WX    TMP DP  RH WIND       PRES   REMARKS
DEFIANCE       MOCLDY    73  60  63 N8        30.08R
FINDLAY        MOCLDY    74  65  73 NE9       30.07R
TOLEDO EXPRESS CLOUDY    71  59  65 N7        30.08R
TOLEDO METCALF CLOUDY    72  63  73 NE3       30.09R
LIMA           PTCLDY    73  63  70 N3        30.07R

$$
&&



USA.gov is the U.S. government's official web portal to all federal, state and local government web resources and services.